Time,TemperatureF,DewpointF,PressureIn,WindDirection,WindDirectionDegrees,WindSpeedMPH,WindSpeedGustMPH,Humidity,HourlyPrecipIn,Conditions,Clouds,dailyrainin,SoftwareType,DateUTC
2013-01-28 00:22:00,16.0,-99.9,30.49,North,349,-999.0,-999.0,-999,-99.99,,,-99.99,,2013-01-28 05:22:00,
2013-01-28 00:32:00,16.0,-99.9,30.49,North,349,-999.0,-999.0,-999,-99.99,,,-99.99,,2013-01-28 05:32:00,
2013-01-28 00:42:00,16.0,-99.9,30.49,North,349,-999.0,-999.0,-999,-99.99,,,-99.99,,2013-01-28 05:42:00,
2013-01-28 00:52:00,16.0,-99.9,30.49,North,349,-999.0,-999.0,-999,-99.99,,,-99.99,,2013-01-28 05:52:00,
2013-01-28 01:22:00,17.0,-99.9,30.49,North,349,-999.0,-999.0,-999,-99.99,,,-99.99,,2013-01-28 06:22:00,
2013-01-28 01:33:00,17.0,-99.9,30.49,North,349,-999.0,-999.0,-999,-99.99,,,-99.99,,2013-01-28 06:33:00,
2013-01-28 01:42:00,17.0,-99.9,30.49,North,349,-999.0,-999.0,-999,-99.99,,,-99.99,,2013-01-28 06:42:00,
2013-01-28 01:52:00,17.0,-99.9,30.49,North,349,-999.0,-999.0,-999,-99.99,,,-99.99,,2013-01-28 06:52:00,
2013-01-28 02:22:00,18.0,-99.9,30.45,North,349,-999.0,-999.0,-999,-99.99,,,-99.99,,2013-01-28 07:22:00,
2013-01-28 02:32:00,18.0,-99.9,30.45,North,349,-999.0,-999.0,-999,-99.99,,,-99.99,,2013-01-28 07:32:00,
2013-01-28 02:42:00,18.0,-99.9,30.45,North,349,-999.0,-999.0,-999,-99.99,,,-99.99,,2013-01-28 07:42:00,
2013-01-28 02:52:00,18.0,-99.9,30.45,North,349,-999.0,-999.0,-999,-99.99,,,-99.99,,2013-01-28 07:52:00,
2013-01-28 02:53:00,19.0,-99.9,30.45,North,349,-999.0,-999.0,-999,-99.99,,,-99.99,,2013-01-28 07:53:00,
2013-01-28 03:22:00,19.0,-99.9,30.45,North,349,-999.0,-999.0,-999,-99.99,,,-99.99,,2013-01-28 08:22:00,
2013-01-28 03:32:00,19.0,-99.9,30.45,North,349,-999.0,-999.0,-999,-99.99,,,-99.99,,2013-01-28 08:32:00,
2013-01-28 03:42:00,19.0,-99.9,30.45,North,349,-999.0,-999.0,-999,-99.99,,,-99.99,,2013-01-28 08:42:00,
2013-01-28 04:22:00,21.0,-99.9,30.43,North,349,-999.0,-999.0,-999,-99.99,,,-99.99,,2013-01-28 09:22:00,
2013-01-28 04:33:00,21.0,-99.9,30.43,North,349,-999.0,-999.0,-999,-99.99,,,-99.99,,2013-01-28 09:33:00,
2013-01-28 04:42:00,21.0,-99.9,30.43,North,349,-999.0,-999.0,-999,-99.99,,,-99.99,,2013-01-28 09:42:00,
2013-01-28 04:52:00,21.0,-99.9,30.43,North,349,-999.0,-999.0,-999,-99.99,,,-99.99,,2013-01-28 09:52:00,
2013-01-28 05:21:00,22.0,-99.9,30.40,North,349,-999.0,-999.0,-999,-99.99,,,-99.99,,2013-01-28 10:21:00,
2013-01-28 05:32:00,22.0,-99.9,30.40,North,349,-999.0,-999.0,-999,-99.99,,,-99.99,,2013-01-28 10:32:00,
2013-01-28 05:42:00,22.0,-99.9,30.40,North,349,-999.0,-999.0,-999,-99.99,,,-99.99,,2013-01-28 10:42:00,
2013-01-28 05:52:00,22.0,-99.9,30.40,North,349,-999.0,-999.0,-999,-99.99,,,-99.99,,2013-01-28 10:52:00,
2013-01-28 06:22:00,23.0,-99.9,30.40,North,349,-999.0,-999.0,-999,-99.99,,,-99.99,,2013-01-28 11:22:00,
2013-01-28 06:33:00,23.0,-99.9,30.40,North,349,-999.0,-999.0,-999,-99.99,,,-99.99,,2013-01-28 11:33:00,
2013-01-28 06:42:00,23.0,-99.9,30.40,North,349,-999.0,-999.0,-999,-99.99,,,-99.99,,2013-01-28 11:42:00,
2013-01-28 06:52:00,23.0,-99.9,30.40,North,349,-999.0,-999.0,-999,-99.99,,,-99.99,,2013-01-28 11:52:00,
2013-01-28 06:53:00,23.0,-99.9,30.39,North,349,-999.0,-999.0,-999,-99.99,,,-99.99,,2013-01-28 11:53:00,
2013-01-28 07:23:00,23.0,-99.9,30.39,North,349,-999.0,-999.0,-999,-99.99,,,-99.99,,2013-01-28 12:23:00,
2013-01-28 07:33:00,23.0,-99.9,30.39,North,349,-999.0,-999.0,-999,-99.99,,,-99.99,,2013-01-28 12:33:00,
2013-01-28 07:43:00,23.0,-99.9,30.39,North,349,-999.0,-999.0,-999,-99.99,,,-99.99,,2013-01-28 12:43:00,
2013-01-28 07:53:00,24.0,-99.9,30.39,North,349,-999.0,-999.0,-999,-99.99,,,-99.99,,2013-01-28 12:53:00,
2013-01-28 08:23:00,24.0,-99.9,30.39,North,349,-999.0,-999.0,-999,-99.99,,,-99.99,,2013-01-28 13:23:00,
2013-01-28 08:33:00,24.0,-99.9,30.39,North,349,-999.0,-999.0,-999,-99.99,,,-99.99,,2013-01-28 13:33:00,
2013-01-28 08:43:00,24.0,-99.9,30.39,North,349,-999.0,-999.0,-999,-99.99,,,-99.99,,2013-01-28 13:43:00,
2013-01-28 08:53:00,24.0,-99.9,30.37,North,349,-999.0,-999.0,-999,-99.99,,,-99.99,,2013-01-28 13:53:00,
2013-01-28 09:23:00,24.0,-99.9,30.37,North,349,-999.0,-999.0,-999,-99.99,,,-99.99,,2013-01-28 14:23:00,
2013-01-28 09:33:00,24.0,-99.9,30.37,North,349,-999.0,-999.0,-999,-99.99,,,-99.99,,2013-01-28 14:33:00,
2013-01-28 09:43:00,24.0,-99.9,30.37,North,349,-999.0,-999.0,-999,-99.99,,,-99.99,,2013-01-28 14:43:00,
2013-01-28 09:53:00,26.0,-99.9,30.32,North,349,-999.0,-999.0,-999,-99.99,,,-99.99,,2013-01-28 14:53:00,
2013-01-28 10:24:00,26.0,-99.9,30.32,North,349,-999.0,-999.0,-999,-99.99,,,-99.99,,2013-01-28 15:24:00,
2013-01-28 10:33:00,26.0,-99.9,30.32,North,349,-999.0,-999.0,-999,-99.99,,,-99.99,,2013-01-28 15:33:00,
2013-01-28 10:43:00,26.0,-99.9,30.32,North,349,-999.0,-999.0,-999,-99.99,,,-99.99,,2013-01-28 15:43:00,
2013-01-28 10:53:00,29.0,-99.9,30.30,WSW,253,6.0,11.0,-999,-99.99,,,-99.99,,2013-01-28 15:53:00,
2013-01-28 11:22:00,29.0,-99.9,30.30,WSW,253,6.0,11.0,-999,-99.99,,,-99.99,,2013-01-28 16:22:00,
2013-01-28 11:33:00,29.0,-99.9,30.30,WSW,253,6.0,11.0,-999,-99.99,,,-99.99,,2013-01-28 16:33:00,
2013-01-28 11:43:00,29.0,-99.9,30.30,WSW,253,6.0,11.0,-999,-99.99,,,-99.99,,2013-01-28 16:43:00,
2013-01-28 11:53:00,30.0,-99.9,30.24,SSW,200,-999.0,11.0,-999,-99.99,,,-99.99,,2013-01-28 16:53:00,
2013-01-28 12:23:00,30.0,-99.9,30.24,SSW,200,-999.0,11.0,-999,-99.99,,,-99.99,,2013-01-28 17:23:00,
2013-01-28 12:33:00,30.0,-99.9,30.24,SSW,200,-999.0,11.0,-999,-99.99,,,-99.99,,2013-01-28 17:33:00,
2013-01-28 12:42:00,30.0,-99.9,30.24,SSW,200,-999.0,11.0,-999,-99.99,,,-99.99,,2013-01-28 17:42:00,
2013-01-28 12:53:00,31.0,-99.9,30.19,WSW,242,-999.0,5.0,-999,-99.99,,,-99.99,,2013-01-28 17:53:00,
2013-01-28 13:23:00,31.0,-99.9,30.19,WSW,242,-999.0,5.0,-999,-99.99,,,-99.99,,2013-01-28 18:23:00,
2013-01-28 13:33:00,31.0,-99.9,30.19,WSW,242,-999.0,5.0,-999,-99.99,,,-99.99,,2013-01-28 18:33:00,
2013-01-28 13:43:00,31.0,-99.9,30.19,WSW,242,-999.0,5.0,-999,-99.99,,,-99.99,,2013-01-28 18:43:00,
2013-01-28 13:53:00,31.0,-99.9,30.14,SW,222,-999.0,5.0,-999,-99.99,,,-99.99,,2013-01-28 18:53:00,
2013-01-28 14:23:00,31.0,-99.9,30.14,SW,222,-999.0,5.0,-999,-99.99,,,-99.99,,2013-01-28 19:23:00,
2013-01-28 14:33:00,31.0,-99.9,30.14,SW,222,-999.0,5.0,-999,-99.99,,,-99.99,,2013-01-28 19:33:00,
2013-01-28 14:43:00,31.0,-99.9,30.14,SW,222,-999.0,5.0,-999,-99.99,,,-99.99,,2013-01-28 19:43:00,
2013-01-28 14:53:00,32.0,-99.9,30.12,WSW,255,-999.0,-999.0,-999,-99.99,,,-99.99,,2013-01-28 19:53:00,
2013-01-28 15:22:00,32.0,-99.9,30.12,WSW,255,-999.0,-999.0,-999,-99.99,,,-99.99,,2013-01-28 20:22:00,
2013-01-28 15:33:00,32.0,-99.9,30.12,WSW,255,-999.0,-999.0,-999,-99.99,,,-99.99,,2013-01-28 20:33:00,
2013-01-28 15:43:00,32.0,-99.9,30.12,WSW,255,-999.0,-999.0,-999,-99.99,,,-99.99,,2013-01-28 20:43:00,
2013-01-28 15:53:00,32.0,-99.9,30.09,SW,215,-999.0,-999.0,-999,-99.99,,,-99.99,,2013-01-28 20:53:00,
2013-01-28 16:23:00,32.0,-99.9,30.09,SW,215,-999.0,-999.0,-999,-99.99,,,-99.99,,2013-01-28 21:23:00,
2013-01-28 16:34:00,32.0,-99.9,30.09,SW,215,-999.0,-999.0,-999,-99.99,,,-99.99,,2013-01-28 21:34:00,
2013-01-28 16:43:00,32.0,-99.9,30.09,SW,215,-999.0,-999.0,-999,-99.99,,,-99.99,,2013-01-28 21:43:00,
2013-01-28 16:53:00,32.0,-99.9,30.07,SW,215,-999.0,-999.0,-999,-99.99,,,-99.99,,2013-01-28 21:53:00,
2013-01-28 17:23:00,32.0,-99.9,30.07,SW,215,-999.0,-999.0,-999,-99.99,,,-99.99,,2013-01-28 22:23:00,
2013-01-28 17:33:00,32.0,-99.9,30.07,SW,215,-999.0,-999.0,-999,-99.99,,,-99.99,,2013-01-28 22:33:00,
2013-01-28 17:43:00,32.0,-99.9,30.07,SW,215,-999.0,-999.0,-999,-99.99,,,-99.99,,2013-01-28 22:43:00,
2013-01-28 17:53:00,32.0,-99.9,30.06,SW,215,-999.0,-999.0,-999,-99.99,,,-99.99,,2013-01-28 22:53:00,
2013-01-28 18:22:00,32.0,-99.9,30.06,SW,215,-999.0,-999.0,-999,-99.99,,,-99.99,,2013-01-28 23:22:00,
2013-01-28 18:33:00,32.0,-99.9,30.06,SW,215,-999.0,-999.0,-999,-99.99,,,-99.99,,2013-01-28 23:33:00,
2013-01-28 18:42:00,32.0,-99.9,30.06,SW,215,-999.0,-999.0,-999,-99.99,,,-99.99,,2013-01-28 23:42:00,
2013-01-28 19:22:00,32.0,-99.9,30.06,SW,215,-999.0,-999.0,-999,-99.99,,,-99.99,,2013-01-29 00:22:00,
2013-01-28 19:33:00,32.0,-99.9,30.06,SW,215,-999.0,-999.0,-999,-99.99,,,-99.99,,2013-01-29 00:33:00,
2013-01-28 19:42:00,32.0,-99.9,30.06,SW,215,-999.0,-999.0,-999,-99.99,,,-99.99,,2013-01-29 00:42:00,
2013-01-28 19:52:00,32.0,-99.9,30.06,SW,215,-999.0,-999.0,-999,-99.99,,,-99.99,,2013-01-29 00:52:00,
2013-01-28 19:53:00,32.0,-99.9,30.05,SW,215,-999.0,-999.0,-999,-99.99,,,-99.99,,2013-01-29 00:53:00,
2013-01-28 20:23:00,32.0,-99.9,30.05,SW,215,-999.0,-999.0,-999,-99.99,,,-99.99,,2013-01-29 01:23:00,
2013-01-28 20:32:00,32.0,-99.9,30.05,SW,215,-999.0,-999.0,-999,-99.99,,,-99.99,,2013-01-29 01:32:00,
2013-01-28 20:42:00,32.0,-99.9,30.05,SW,215,-999.0,-999.0,-999,-99.99,,,-99.99,,2013-01-29 01:42:00,
2013-01-28 21:53:00,32.0,-99.9,30.03,SW,215,-999.0,-999.0,-999,-99.99,,,-99.99,,2013-01-29 02:53:00,
2013-01-28 22:22:00,32.0,-99.9,30.03,SW,215,-999.0,-999.0,-999,-99.99,,,-99.99,,2013-01-29 03:22:00,
2013-01-28 22:32:00,32.0,-99.9,30.03,SW,215,-999.0,-999.0,-999,-99.99,,,-99.99,,2013-01-29 03:32:00,
2013-01-28 22:42:00,32.0,-99.9,30.03,SW,215,-999.0,-999.0,-999,-99.99,,,-99.99,,2013-01-29 03:42:00,
2013-01-28 23:22:00,32.0,-99.9,30.02,SW,215,-999.0,-999.0,-999,-99.99,,,-99.99,,2013-01-29 04:22:00,
2013-01-28 23:32:00,32.0,-99.9,30.02,SW,215,-999.0,-999.0,-999,-99.99,,,-99.99,,2013-01-29 04:32:00,
2013-01-28 23:42:00,32.0,-99.9,30.02,SW,215,-999.0,-999.0,-999,-99.99,,,-99.99,,2013-01-29 04:42:00,
2013-01-28 23:52:00,32.0,-99.9,30.02,SW,215,-999.0,-999.0,-999,-99.99,,,-99.99,,2013-01-29 04:52:00,